| time (UTC) | temp C | wind direction | speed KPH | gust KPH | rain 1hr cm | rain 24hr cm | rain mn cm | humidity % | barometer mb |
| 20260502211743 | 17 | 136 | 4.8 | 14.5 | 0.00 | 0.00 | 0.00 | 36 | 1014.9 |
| 20260502211240 | 17 | 190 | 8.0 | 12.9 | 0.00 | 0.00 | 0.00 | 36 | 1015.1 |
| 20260502210737 | 17 | 124 | 6.4 | 9.7 | 0.00 | 0.00 | 0.00 | 35 | 1015.2 |
| 20260502210235 | 17 | 181 | 4.8 | 17.7 | 0.00 | 0.00 | 0.00 | 36 | 1015.1 |
| 20260502205732 | 17 | 155 | 9.7 | 22.5 | 0.00 | 0.00 | 0.00 | 35 | 1015.5 |
| 20260502205228 | 17 | 149 | 8.0 | 11.3 | 0.00 | 0.00 | 0.00 | 35 | 1015.4 |
| 20260502204726 | 17 | 200 | 9.7 | 22.5 | 0.00 | 0.00 | 0.00 | 35 | 1015.7 |
| 20260502204223 | 17 | 124 | 8.0 | 17.7 | 0.00 | 0.00 | 0.00 | 37 | 1015.9 |
| 20260502203720 | 16 | 229 | 6.4 | 12.9 | 0.00 | 0.00 | 0.00 | 36 | 1016.0 |
| 20260502203218 | 17 | 222 | 12.9 | 16.1 | 0.00 | 0.00 | 0.00 | 35 | 1016.2 |
| 20260502202712 | 16 | 158 | 3.2 | 8.0 | 0.00 | 0.00 | 0.00 | 36 | 1016.1 |
| 20260502202211 | 16 | 108 | 9.7 | 14.5 | 0.00 | 0.00 | 0.00 | 37 | 1016.2 |
| 20260502201708 | 16 | 75 | 8.0 | 16.1 | 0.00 | 0.00 | 0.00 | 36 | 1016.4 |
| 20260502201204 | 16 | 117 | 0.0 | 9.7 | 0.00 | 0.00 | 0.00 | 38 | 1016.3 |
| 20260502200700 | 16 | 177 | 9.7 | 14.5 | 0.00 | 0.00 | 0.00 | 36 | 1016.4 |
| 20260502200156 | 16 | 166 | 6.4 | 14.5 | 0.00 | 0.00 | 0.00 | 36 | 1016.7 |
| 20260502195655 | 16 | 155 | 4.8 | 14.5 | 0.00 | 0.00 | 0.00 | 36 | 1016.5 |
| 20260502195151 | 16 | 153 | 4.8 | 14.5 | 0.00 | 0.00 | 0.00 | 37 | 1016.7 |
| 20260502194648 | 16 | 218 | 1.6 | 14.5 | 0.00 | 0.00 | 0.00 | 37 | 1016.8 |
| 20260502194144 | 16 | 232 | 8.0 | 16.1 | 0.00 | 0.00 | 0.00 | 37 | 1016.7 |
| 20260502193641 | 16 | 206 | 11.3 | 14.5 | 0.00 | 0.00 | 0.00 | 36 | 1017.1 |
| 20260502193138 | 15 | 205 | 8.0 | 22.5 | 0.00 | 0.00 | 0.00 | 38 | 1017.2 |
| 20260502192633 | 15 | 173 | 8.0 | 14.5 | 0.00 | 0.00 | 0.00 | 37 | 1017.1 |
| 20260502192131 | 16 | 167 | 4.8 | 20.9 | 0.00 | 0.00 | 0.00 | 37 | 1017.5 |
| 20260502191627 | 16 | 110 | 4.8 | 14.5 | 0.00 | 0.00 | 0.00 | 40 | 1017.2 |
| 20260502191125 | 15 | 138 | 8.0 | 11.3 | 0.00 | 0.00 | 0.00 | 37 | 1017.3 |
| 20260502190623 | 15 | 220 | 14.5 | 17.7 | 0.00 | 0.00 | 0.00 | 36 | 1017.5 |
| 20260502190120 | 15 | 110 | 9.7 | 20.9 | 0.00 | 0.00 | 0.00 | 37 | 1017.5 |
| 20260502185614 | 15 | 150 | 8.0 | 17.7 | 0.00 | 0.00 | 0.00 | 37 | 1018.1 |
| 20260502185112 | 14 | 166 | 6.4 | 22.5 | 0.00 | 0.00 | 0.00 | 38 | 1017.8 |
| 20260502184608 | 15 | 134 | 4.8 | 14.5 | 0.00 | 0.00 | 0.00 | 38 | 1017.9 |
| 20260502184103 | 15 | 165 | 8.0 | 12.9 | 0.00 | 0.00 | 0.00 | 38 | 1018.1 |
| 20260502183600 | 14 | 187 | 11.3 | 14.5 | 0.00 | 0.00 | 0.00 | 37 | 1018.2 |
| 20260502183056 | 14 | 181 | 3.2 | 12.9 | 0.00 | 0.00 | 0.00 | 38 | 1018.1 |
| 20260502182552 | 15 | 221 | 12.9 | 20.9 | 0.00 | 0.00 | 0.00 | 37 | 1018.3 |
| 20260502182047 | 14 | 144 | 3.2 | 4.8 | 0.00 | 0.00 | 0.00 | 38 | 1018.4 |
| 20260502181546 | 13 | 104 | 0.0 | 9.7 | 0.00 | 0.00 | 0.00 | 39 | 1018.4 |
| 20260502181044 | 14 | 224 | 8.0 | 16.1 | 0.00 | 0.00 | 0.00 | 37 | 1018.8 |
| 20260502180540 | 13 | 142 | 8.0 | 14.5 | 0.00 | 0.00 | 0.00 | 38 | 1018.6 |
| 20260502170454 | 13 | 221 | 3.2 | 12.9 | 0.00 | 0.00 | 0.00 | 38 | 1019.7 |
| 20260502163937 | 12 | 215 | 11.3 | 16.1 | 0.00 | 0.00 | 0.00 | 40 | 1020.0 |
| 20260502163433 | 12 | 119 | 8.0 | 12.9 | 0.00 | 0.00 | 0.00 | 41 | 1019.9 |
| 20260502162931 | 13 | 93 | 6.4 | 20.9 | 0.00 | 0.00 | 0.00 | 41 | 1020.2 |
| 20260502162427 | 12 | 125 | 1.6 | 9.7 | 0.00 | 0.00 | 0.00 | 42 | 1019.8 |
| 20260502161924 | 12 | 229 | 8.0 | 24.1 | 0.00 | 0.00 | 0.00 | 40 | 1020.0 |
| 20260502161420 | 12 | 202 | 4.8 | 11.3 | 0.00 | 0.00 | 0.00 | 40 | 1020.0 |
| 20260502160919 | 12 | 167 | 6.4 | 17.7 | 0.00 | 0.00 | 0.00 | 40 | 1020.0 |
| 20260502160417 | 12 | 225 | 6.4 | 14.5 | 0.00 | 0.00 | 0.00 | 40 | 1020.3 |
| 20260502151855 | 11 | 145 | 6.4 | 9.7 | 0.00 | 0.00 | 0.00 | 43 | 1020.7 |
| 20260502151351 | 11 | 229 | 6.4 | 9.7 | 0.00 | 0.00 | 0.00 | 44 | 1020.5 |
| 20260502150849 | 11 | 304 | 3.2 | 12.9 | 0.00 | 0.00 | 0.00 | 46 | 1020.7 |
| 20260502150345 | 11 | 238 | 9.7 | 12.9 | 0.00 | 0.00 | 0.00 | 43 | 1020.8 |
| 20260502130734 | 7 | 262 | 4.8 | 11.3 | 0.00 | 0.00 | 0.00 | 59 | 1021.3 |
| 20260502130231 | 6 | 207 | 3.2 | 4.8 | 0.00 | 0.00 | 0.00 | 61 | 1021.1 |
| 20260502123717 | 5 | 149 | 4.8 | 4.8 | 0.00 | 0.00 | 0.00 | 66 | 1021.1 |
| 20260502123214 | 5 | 221 | 3.2 | 4.8 | 0.00 | 0.00 | 0.00 | 66 | 1021.3 |
| 20260502122710 | 5 | 171 | 3.2 | 4.8 | 0.00 | 0.00 | 0.00 | 66 | 1021.1 |
| 20260502122207 | 5 | 225 | 1.6 | 3.2 | 0.00 | 0.00 | 0.00 | 66 | 1021.1 |
| 20260502121705 | 5 | 214 | 1.6 | 3.2 | 0.00 | 0.00 | 0.00 | 66 | 1021.1 |
| 20260502121203 | 5 | 213 | 1.6 | 3.2 | 0.00 | 0.00 | 0.00 | 67 | 1020.8 |
| 20260502120659 | 5 | 200 | 1.6 | 3.2 | 0.00 | 0.00 | 0.00 | 68 | 1021.1 |
| 20260502120156 | 4 | 211 | 1.6 | 3.2 | 0.00 | 0.00 | 0.00 | 67 | 1021.1 |
| 20260502115654 | 4 | 235 | 1.6 | 4.8 | 0.00 | 0.00 | 0.00 | 68 | 1021.1 |
| 20260502115149 | 4 | 208 | 3.2 | 4.8 | 0.00 | 0.00 | 0.00 | 68 | 1021.1 |
| 20260502114646 | 4 | 236 | 1.6 | 3.2 | 0.00 | 0.00 | 0.00 | 68 | 1021.1 |
| 20260502114143 | 3 | 228 | 3.2 | 3.2 | 0.00 | 0.00 | 0.00 | 69 | 1021.1 |
| 20260502113640 | 3 | 232 | 1.6 | 3.2 | 0.00 | 0.00 | 0.00 | 72 | 1021.0 |
| 20260502113133 | 2 | 251 | 1.6 | 1.6 | 0.00 | 0.00 | 0.00 | 75 | 1021.0 |
| 20260502112631 | 2 | 253 | 1.6 | 1.6 | 0.00 | 0.00 | 0.00 | 73 | 1020.8 |
| 20260502112128 | 2 | 231 | 0.0 | 1.6 | 0.00 | 0.00 | 0.00 | 74 | 1021.1 |
| 20260502111625 | 2 | 225 | 0.0 | 1.6 | 0.00 | 0.00 | 0.00 | 73 | 1020.9 |
| 20260502111123 | 3 | 224 | 0.0 | 0.0 | 0.00 | 0.00 | 0.00 | 72 | 1020.8 |
| 20260502110620 | 3 | 218 | 1.6 | 3.2 | 0.00 | 0.00 | 0.00 | 70 | 1021.0 |
| 20260502110117 | 3 | 230 | 0.0 | 1.6 | 0.00 | 0.00 | 0.00 | 70 | 1021.0 |
| 20260502105615 | 3 | 225 | 0.0 | 1.6 | 0.00 | 0.00 | 0.00 | 69 | 1020.8 |
| 20260502105112 | 3 | 233 | 1.6 | 1.6 | 0.00 | 0.00 | 0.00 | 68 | 1020.8 |
| 20260502104609 | 3 | 201 | 1.6 | 3.2 | 0.00 | 0.00 | 0.00 | 68 | 1020.8 |
| 20260502104106 | 3 | 201 | 0.0 | 1.6 | 0.00 | 0.00 | 0.00 | 68 | 1020.9 |
| 20260502103604 | 3 | 212 | 1.6 | 4.8 | 0.00 | 0.00 | 0.00 | 67 | 1021.0 |
| 20260502103102 | 3 | 227 | 1.6 | 1.6 | 0.00 | 0.00 | 0.00 | 67 | 1020.8 |
| 20260502102558 | 3 | 178 | 1.6 | 1.6 | 0.00 | 0.00 | 0.00 | 66 | 1020.8 |
| 20260502102055 | 4 | 201 | 1.6 | 3.2 | 0.00 | 0.00 | 0.00 | 65 | 1020.8 |
| 20260502101553 | 4 | 209 | 1.6 | 3.2 | 0.00 | 0.00 | 0.00 | 64 | 1020.6 |
| 20260502101051 | 4 | 206 | 6.4 | 8.0 | 0.00 | 0.00 | 0.00 | 64 | 1020.7 |
| 20260502100549 | 5 | 180 | 1.6 | 4.8 | 0.00 | 0.00 | 0.00 | 63 | 1020.9 |
| 20260502091524 | 5 | 225 | 8.0 | 11.3 | 0.00 | 0.00 | 0.00 | 60 | 1020.7 |
| 20260502091021 | 5 | 223 | 4.8 | 9.7 | 0.00 | 0.00 | 0.00 | 60 | 1020.6 |
| 20260502090518 | 5 | 195 | 3.2 | 4.8 | 0.00 | 0.00 | 0.00 | 60 | 1020.4 |
| 20260502071412 | 5 | 229 | 3.2 | 3.2 | 0.00 | 0.00 | 0.00 | 59 | 1021.0 |
| 20260502070911 | 5 | 174 | 1.6 | 3.2 | 0.00 | 0.00 | 0.00 | 59 | 1021.1 |
| 20260502070408 | 5 | 155 | 1.6 | 3.2 | 0.00 | 0.00 | 0.00 | 59 | 1021.1 |
| 20260502065907 | 5 | 216 | 0.0 | 3.2 | 0.00 | 0.00 | 0.00 | 59 | 1021.1 |
| 20260502065405 | 6 | 183 | 3.2 | 3.2 | 0.00 | 0.00 | 0.00 | 59 | 1021.0 |
| 20260502064903 | 5 | 219 | 1.6 | 4.8 | 0.00 | 0.00 | 0.00 | 59 | 1021.0 |
| 20260502064400 | 5 | 203 | 0.0 | 1.6 | 0.00 | 0.00 | 0.00 | 60 | 1021.2 |
| 20260502063857 | 5 | 202 | 0.0 | 1.6 | 0.00 | 0.00 | 0.00 | 60 | 1021.2 |
| 20260502063355 | 5 | 201 | 0.0 | 1.6 | 0.00 | 0.00 | 0.00 | 60 | 1021.2 |
| 20260502062852 | 5 | 193 | 1.6 | 3.2 | 0.00 | 0.00 | 0.00 | 60 | 1021.2 |
| 20260502062349 | 5 | 219 | 1.6 | 8.0 | 0.00 | 0.00 | 0.00 | 59 | 1021.1 |
| 20260502061848 | 5 | 210 | 1.6 | 3.2 | 0.00 | 0.00 | 0.00 | 58 | 1021.1 |
| 20260502061345 | 5 | 216 | 0.0 | 3.2 | 0.00 | 0.00 | 0.00 | 58 | 1021.2 |
| 20260502060841 | 5 | 183 | 0.0 | 1.6 | 0.00 | 0.00 | 0.00 | 59 | 1021.0 |
| 20260502060336 | 5 | 197 | 1.6 | 4.8 | 0.00 | 0.00 | 0.00 | 58 | 1021.1 |
| 20260502055834 | 5 | 220 | 0.0 | 1.6 | 0.00 | 0.00 | 0.00 | 58 | 1021.2 |
| 20260502055332 | 5 | 219 | 0.0 | 3.2 | 0.00 | 0.00 | 0.00 | 57 | 1021.1 |
| 20260502054831 | 6 | 233 | 1.6 | 1.6 | 0.00 | 0.00 | 0.00 | 57 | 1021.1 |
| 20260502054328 | 5 | 230 | 1.6 | 3.2 | 0.00 | 0.00 | 0.00 | 56 | 1021.2 |
| 20260502053826 | 6 | 223 | 0.0 | 1.6 | 0.00 | 0.00 | 0.00 | 56 | 1021.3 |
| 20260502053323 | 6 | 218 | 1.6 | 3.2 | 0.00 | 0.00 | 0.00 | 56 | 1021.3 |
| 20260502052820 | 6 | 233 | 1.6 | 1.6 | 0.00 | 0.00 | 0.00 | 55 | 1021.1 |
| 20260502052318 | 6 | 177 | 1.6 | 1.6 | 0.00 | 0.00 | 0.00 | 55 | 1021.0 |
| 20260502051816 | 6 | 197 | 1.6 | 1.6 | 0.00 | 0.00 | 0.00 | 55 | 1021.2 |
| 20260502051315 | 5 | 240 | 0.0 | 1.6 | 0.00 | 0.00 | 0.00 | 55 | 1021.3 |
| 20260502050810 | 5 | 213 | 0.0 | 1.6 | 0.00 | 0.00 | 0.00 | 55 | 1021.1 |
| 20260502050307 | 5 | 221 | 0.0 | 1.6 | 0.00 | 0.00 | 0.00 | 55 | 1021.1 |
| 20260502045804 | 5 | 230 | 0.0 | 0.0 | 0.00 | 0.00 | 0.00 | 55 | 1021.2 |
| 20260502045300 | 5 | 223 | 0.0 | 1.6 | 0.00 | 0.00 | 0.00 | 54 | 1021.1 |
| 20260502044758 | 5 | 228 | 1.6 | 1.6 | 0.00 | 0.00 | 0.00 | 53 | 1021.0 |
| 20260502044254 | 5 | 233 | 0.0 | 1.6 | 0.00 | 0.00 | 0.00 | 52 | 1021.0 |
| 20260502043751 | 5 | 229 | 0.0 | 0.0 | 0.00 | 0.00 | 0.00 | 52 | 1020.9 |
| 20260502043249 | 6 | 233 | 0.0 | 1.6 | 0.00 | 0.00 | 0.00 | 51 | 1021.0 |
| 20260502042748 | 6 | 228 | 1.6 | 1.6 | 0.00 | 0.00 | 0.00 | 51 | 1021.2 |
| 20260502042245 | 5 | 243 | 0.0 | 0.0 | 0.00 | 0.00 | 0.00 | 51 | 1021.1 |
| 20260502041743 | 6 | 236 | 0.0 | 0.0 | 0.00 | 0.00 | 0.00 | 51 | 1021.0 |
| 20260502041240 | 6 | 237 | 0.0 | 0.0 | 0.00 | 0.00 | 0.00 | 50 | 1021.1 |
| 20260502040737 | 6 | 241 | 0.0 | 0.0 | 0.00 | 0.00 | 0.00 | 50 | 1021.0 |
| 20260502040234 | 6 | 242 | 0.0 | 0.0 | 0.00 | 0.00 | 0.00 | 49 | 1021.0 |
| 20260502035730 | 6 | 230 | 0.0 | 0.0 | 0.00 | 0.00 | 0.00 | 50 | 1021.3 |
| 20260502035227 | 6 | 202 | 1.6 | 1.6 | 0.00 | 0.00 | 0.00 | 49 | 1021.1 |
| 20260502034724 | 5 | 199 | 0.0 | 3.2 | 0.00 | 0.00 | 0.00 | 51 | 1021.2 |
| 20260502034222 | 5 | 284 | 0.0 | 0.0 | 0.00 | 0.00 | 0.00 | 50 | 1021.1 |
| 20260502033720 | 6 | 284 | 0.0 | 0.0 | 0.00 | 0.00 | 0.00 | 49 | 1021.2 |
| 20260502033218 | 5 | 284 | 0.0 | 0.0 | 0.00 | 0.00 | 0.00 | 51 | 1021.2 |
| 20260502032714 | 5 | 284 | 0.0 | 0.0 | 0.00 | 0.00 | 0.00 | 51 | 1021.1 |
| 20260502032210 | 5 | 284 | 0.0 | 0.0 | 0.00 | 0.00 | 0.00 | 51 | 1021.1 |
| 20260502031708 | 5 | 284 | 0.0 | 0.0 | 0.00 | 0.00 | 0.00 | 53 | 1021.1 |
| 20260502031206 | 6 | 284 | 0.0 | 0.0 | 0.00 | 0.00 | 0.00 | 52 | 1021.2 |
| 20260502030705 | 6 | 284 | 0.0 | 0.0 | 0.00 | 0.00 | 0.00 | 54 | 1021.2 |
| 20260502030202 | 6 | 285 | 0.0 | 0.0 | 0.00 | 0.00 | 0.00 | 55 | 1021.1 |
| 20260502025659 | 6 | 284 | 0.0 | 0.0 | 0.00 | 0.00 | 0.00 | 47 | 1021.1 |
| 20260502025157 | 6 | 284 | 0.0 | 0.0 | 0.00 | 0.00 | 0.00 | 48 | 1021.2 |
| 20260502024654 | 6 | 284 | 0.0 | 0.0 | 0.00 | 0.00 | 0.00 | 47 | 1021.2 |
| 20260502024153 | 6 | 284 | 0.0 | 0.0 | 0.00 | 0.00 | 0.00 | 50 | 1021.1 |
| 20260502023650 | 6 | 284 | 0.0 | 0.0 | 0.00 | 0.00 | 0.00 | 48 | 1021.0 |
| 20260502023147 | 6 | 284 | 0.0 | 0.0 | 0.00 | 0.00 | 0.00 | 47 | 1021.1 |
| 20260502022644 | 6 | 284 | 0.0 | 0.0 | 0.00 | 0.00 | 0.00 | 49 | 1021.0 |
| 20260502022141 | 6 | 284 | 0.0 | 0.0 | 0.00 | 0.00 | 0.00 | 48 | 1020.9 |
| 20260502021639 | 6 | 284 | 0.0 | 0.0 | 0.00 | 0.00 | 0.00 | 50 | 1021.1 |
| 20260502021135 | 6 | 284 | 0.0 | 0.0 | 0.00 | 0.00 | 0.00 | 49 | 1020.9 |
| 20260502020633 | 7 | 284 | 0.0 | 0.0 | 0.00 | 0.00 | 0.00 | 48 | 1021.0 |
| 20260502020129 | 7 | 284 | 0.0 | 0.0 | 0.00 | 0.00 | 0.00 | 48 | 1021.1 |
| 20260502015628 | 7 | 284 | 0.0 | 0.0 | 0.00 | 0.00 | 0.00 | 44 | 1020.9 |
| 20260502015123 | 7 | 284 | 0.0 | 0.0 | 0.00 | 0.00 | 0.00 | 46 | 1020.9 |
| 20260502014621 | 7 | 284 | 0.0 | 0.0 | 0.00 | 0.00 | 0.00 | 46 | 1020.6 |
| 20260502014118 | 7 | 268 | 0.0 | 0.0 | 0.00 | 0.00 | 0.00 | 48 | 1020.7 |
| 20260502013614 | 7 | 267 | 0.0 | 0.0 | 0.00 | 0.00 | 0.00 | 45 | 1020.6 |
| 20260502013109 | 7 | 267 | 0.0 | 0.0 | 0.00 | 0.00 | 0.00 | 45 | 1020.7 |
| 20260502012608 | 8 | 267 | 0.0 | 0.0 | 0.00 | 0.00 | 0.00 | 43 | 1020.5 |
| 20260502012106 | 8 | 267 | 0.0 | 0.0 | 0.00 | 0.00 | 0.00 | 40 | 1020.6 |
| 20260502011602 | 8 | 280 | 0.0 | 0.0 | 0.00 | 0.00 | 0.00 | 40 | 1020.6 |
| 20260502011057 | 9 | 253 | 0.0 | 1.6 | 0.00 | 0.00 | 0.00 | 39 | 1020.5 |
| 20260502010555 | 10 | 232 | 0.0 | 1.6 | 0.00 | 0.00 | 0.00 | 38 | 1020.7 |
| 20260502010051 | 10 | 214 | 1.6 | 3.2 | 0.00 | 0.00 | 0.00 | 38 | 1020.7 |
| 20260502005549 | 10 | 260 | 0.0 | 1.6 | 0.00 | 0.00 | 0.00 | 39 | 1020.6 |
| 20260502005047 | 10 | 296 | 0.0 | 1.6 | 0.00 | 0.00 | 0.00 | 38 | 1020.5 |
| 20260502004542 | 10 | 276 | 0.0 | 1.6 | 0.00 | 0.00 | 0.00 | 37 | 1020.5 |
| 20260502004039 | 10 | 242 | 0.0 | 1.6 | 0.00 | 0.00 | 0.00 | 36 | 1020.4 |
| 20260502003537 | 10 | 255 | 1.6 | 3.2 | 0.00 | 0.00 | 0.00 | 35 | 1020.5 |
| 20260502003034 | 10 | 219 | 1.6 | 1.6 | 0.00 | 0.00 | 0.00 | 36 | 1020.5 |
| 20260502002530 | 11 | 245 | 1.6 | 4.8 | 0.00 | 0.00 | 0.00 | 34 | 1020.4 |
| 20260502002027 | 11 | 224 | 0.0 | 3.2 | 0.00 | 0.00 | 0.00 | 34 | 1020.4 |
| 20260502001525 | 11 | 260 | 1.6 | 9.7 | 0.00 | 0.00 | 0.00 | 34 | 1020.2 |
| 20260502001022 | 11 | 297 | 8.0 | 9.7 | 0.00 | 0.00 | 0.00 | 34 | 1020.4 |
| 20260502000521 | 11 | 303 | 4.8 | 4.8 | 0.00 | 0.00 | 0.00 | 34 | 1020.4 |
| 20260502000017 | 11 | 269 | 3.2 | 4.8 | 0.00 | 0.00 | 0.00 | 34 | 1020.3 |
| 20260501235513 | 11 | 34 | 3.2 | 8.0 | 0.00 | 0.00 | 0.00 | 34 | 1020.4 |
| 20260501235009 | 11 | 325 | 6.4 | 9.7 | 0.00 | 0.00 | 0.00 | 35 | 1020.5 |
| 20260501234504 | 11 | 267 | 6.4 | 8.0 | 0.00 | 0.00 | 0.00 | 34 | 1020.4 |
| 20260501234003 | 11 | 250 | 4.8 | 8.0 | 0.00 | 0.00 | 0.00 | 35 | 1020.3 |
| 20260501233501 | 11 | 260 | 4.8 | 11.3 | 0.00 | 0.00 | 0.00 | 35 | 1020.3 |
| 20260501232956 | 11 | 270 | 1.6 | 8.0 | 0.00 | 0.00 | 0.00 | 35 | 1020.5 |
| 20260501232453 | 11 | 305 | 4.8 | 9.7 | 0.00 | 0.00 | 0.00 | 35 | 1020.5 |
| 20260501231950 | 11 | 326 | 9.7 | 11.3 | 0.00 | 0.00 | 0.00 | 34 | 1020.5 |
| 20260501231449 | 11 | 11 | 4.8 | 4.8 | 0.00 | 0.00 | 0.00 | 35 | 1020.4 |
| 20260501230947 | 11 | 306 | 3.2 | 8.0 | 0.00 | 0.00 | 0.00 | 34 | 1020.5 |
| 20260501230446 | 11 | 269 | 9.7 | 11.3 | 0.00 | 0.00 | 0.00 | 34 | 1020.5 |
| 20260501225943 | 11 | 285 | 8.0 | 11.3 | 0.00 | 0.00 | 0.00 | 34 | 1020.3 |
| 20260501225440 | 11 | 232 | 4.8 | 8.0 | 0.00 | 0.00 | 0.00 | 35 | 1020.4 |
| 20260501224936 | 11 | 173 | 8.0 | 14.5 | 0.00 | 0.00 | 0.00 | 35 | 1020.4 |
| 20260501224433 | 11 | 279 | 4.8 | 9.7 | 0.00 | 0.00 | 0.00 | 33 | 1020.4 |
| 20260501223930 | 11 | 241 | 6.4 | 9.7 | 0.00 | 0.00 | 0.00 | 34 | 1020.6 |
| 20260501223426 | 11 | 349 | 4.8 | 8.0 | 0.00 | 0.00 | 0.00 | 35 | 1020.4 |
| 20260501222922 | 11 | 316 | 6.4 | 9.7 | 0.00 | 0.00 | 0.00 | 34 | 1020.5 |
| 20260501222420 | 11 | 324 | 1.6 | 3.2 | 0.00 | 0.00 | 0.00 | 38 | 1020.4 |
| 20260501221916 | 11 | 221 | 1.6 | 9.7 | 0.00 | 0.00 | 0.00 | 37 | 1020.3 |
| 20260501221413 | 11 | 199 | 4.8 | 11.3 | 0.00 | 0.00 | 0.00 | 34 | 1020.5 |
| 20260501220911 | 11 | 229 | 3.2 | 11.3 | 0.00 | 0.00 | 0.00 | 34 | 1020.6 |
| 20260501220408 | 11 | 291 | 4.8 | 4.8 | 0.00 | 0.00 | 0.00 | 35 | 1020.4 |
| 20260501215904 | 11 | 273 | 4.8 | 8.0 | 0.00 | 0.00 | 0.00 | 35 | 1020.6 |
| 20260501215401 | 11 | 343 | 8.0 | 14.5 | 0.00 | 0.00 | 0.00 | 35 | 1020.5 |
| 20260501214856 | 11 | 67 | 0.0 | 4.8 | 0.00 | 0.00 | 0.00 | 38 | 1020.4 |
| 20260501214352 | 11 | 157 | 0.0 | 3.2 | 0.00 | 0.00 | 0.00 | 36 | 1020.6 |
| 20260501213848 | 12 | 122 | 1.6 | 8.0 | 0.00 | 0.00 | 0.00 | 35 | 1020.6 |
| 20260501213345 | 12 | 280 | 8.0 | 12.9 | 0.00 | 0.00 | 0.00 | 36 | 1020.6 |
| 20260501212840 | 12 | 214 | 8.0 | 16.1 | 0.00 | 0.00 | 0.00 | 35 | 1020.7 |
| 20260501212337 | 11 | 172 | 0.0 | 8.0 | 0.00 | 0.00 | 0.00 | 39 | 1020.5 |